Probability
10 6 3 3 3 0 0 0 0 0 0 0 0 0 0 0 0 0 0 0 0 0 0 0 0 0 0 0 0 0 0 0 0 3 3 3 3 3
10 10 3 3 3 3 6 6 3 0 0 0 0 0 0 0 0 0 0 0 0 0 0 0 0 0 0 0 0 0 0 0 0 0 3 3 3 3
6 10 3 3 3 3 3 3 3 3 3 0 0 0 0 0 0 0 0 0 0 0 0 0 0 0 0 0 0 0 0 0 0 0 0 3 3 3
10 10 3 3 3 3 3 3 3 3 3 0 0 0 0 0 0 0 0 0 0 0 0 0 0 0 0 0 0 0 0 0 0 0 0 0 0 0
10 6 3 3 3 3 3 3 3 3 3 0 0 0 0 0 0 0 0 0 0 0 0 0 0 0 0 0 0 0 0 0 0 0 0 0 0 0
6 6 6 3 3 3 3 3 3 3 3 3 0 0 0 0 0 0 0 0 3 3 3 0 0 0 0 0 0 0 0 0 0 0 0 0 0 0
6 6 6 6 3 3 3 3 3 3 3 0 0 0 0 0 0 0 0 0 0 0 0 0 0 0 0 0 0 0 0 0 0 0 0 0 0 0
6 6 6 3 0 0 0 0 0 3 3 3 0 0 0 0 0 0 0 0 0 0 0 0 0 0 0 0 0 0 0 0 0 0 0 0 0 0
0 3 3 3 0 0 0 0 0 0 0 3 0 0 0 0 0 0 0 0 0 0 0 0 0 0 0 0 0 0 0 0 0 0 0 0 0 0
0 0 3 0 0 0 0 0 0 0 0 0 0 0 0 0 0 0 0 0 0 0 0 0 0 0 0 0 0 0 0 0 0 0 0 0 0 0
0 0 3 0 0 0 0 0 0 0 0 0 0 0 0 0 0 0 0 0 0 0 0 0 0 0 0 0 0 0 0 0 0 0 0 0 0 0
3 0 3 0 0 0 0 0 0 0 0 0 0 0 0 0 0 0 0 0 0 0 0 0 0 0 0 0 0 0 0 0 0 0 0 0 0 0
3 3 0 0 0 0 0 0 0 0 0 0 0 0 0 0 0 0 0 0 0 0 0 0 0 0 0 0 0 0 0 0 0 0 0 0 0 0
3 3 0 0 0 0 0 0 0 0 0 0 0 0 0 0 0 0 0 0 0 0 0 0 0 0 0 0 0 0 0 0 0 0 0 0 0 0
0 3 0 0 0 0 0 0 0 0 0 0 0 0 0 0 0 0 0 0 0 0 0 0 0 0 0 0 0 0 0 0 0 0 0 0 0 0
0 0 0 0 0 0 0 0 0 0 0 0 0 0 0 0 0 0 0 0 0 0 0 0 0 0 0 0 0 0 0 0 0 0 0 0 0 0
0 0 0 0 0 0 0 0 0 0 0 0 0 0 0 0 0 0 0 0 0 0 0 0 0 0 0 0 0 0 0 0 0 0 0 0 0 0
0 0 0 0 0 0 0 0 0 0 0 0 0 3 0 0 0 0 0 0 0 0 0 0 0 0 0 0 0 0 0 0 0 0 0 0 0 0
0 0 0 0 0 0 0 0 0 0 0 0 0 3 0 0 0 0 0 0 0 0 0 0 0 0 0 0 0 0 0 0 0 0 0 0 0 0
0 0 0 0 0 0 0 0 0 0 0 0 0 3 0 0 0 0 0 0 0 0 0 0 0 0 0 0 0 0 0 0 0 0 0 0 0 0
0 0 0 0 0 0 0 0 0 0 0 0 0 0 0 0 0 0 0 0 0 0 0 0 0 0 0 0 0 0 0 0 0 0 0 0 0 0
0 0 0 0 0 0 0 0 0 0 0 0 0 0 0 0 0 0 0 0 0 0 0 0 0 0 0 0 0 0 0 0 0 0 0 0 0 0
0 0 0 0 0 0 0 0 0 3 3 3 3 3 0 0 0 0 0 0 0 0 0 0 0 0 0 0 0 0 0 0 0 0 0 0 0 0
Height
5828 5826 5824 5823 5821 5819 5818 5816 5815 5814 5813 5812 5811 5810 5810 5809 5809 5809 5809 5808 5808 5807 5807 5807 5806 5806 5806 5806 5806 5806 5806 5805 5805 5805 5805 5805 5804 5804
5823 5821 5820 5818 5816 5814 5813 5811 5810 5809 5808 5807 5805 5804 5804 5803 5803 5803 5802 5802 5802 5801 5801 5800 5800 5800 5800 5800 5799 5799 5799 5799 5798 5798 5797 5797 5797 5796
5818 5816 5815 5813 5811 5809 5808 5806 5805 5804 5802 5801 5800 5799 5798 5798 5797 5796 5796 5795 5795 5794 5794 5793 5793 5793 5793 5792 5792 5792 5792 5792 5791 5791 5790 5790 5789 5789
5813 5812 5810 5808 5806 5804 5803 5801 5800 5798 5797 5796 5795 5794 5793 5792 5791 5790 5789 5789 5788 5788 5787 5787 5786 5786 5786 5786 5785 5785 5785 5784 5784 5784 5783 5783 5782 5781
5809 5807 5805 5803 5801 5799 5797 5796 5794 5793 5791 5790 5789 5788 5787 5786 5785 5784 5783 5782 5782 5781 5781 5780 5780 5779 5779 5778 5778 5778 5777 5777 5777 5776 5776 5775 5774 5774
5803 5801 5799 5797 5796 5794 5792 5790 5789 5787 5786 5785 5784 5782 5781 5780 5779 5778 5777 5776 5775 5774 5774 5773 5773 5772 5772 5771 5771 5770 5770 5769 5769 5768 5768 5767 5767 5766
5798 5796 5794 5792 5791 5789 5787 5785 5783 5782 5780 5779 5778 5776 5775 5773 5772 5771 5770 5769 5768 5768 5767 5766 5765 5765 5764 5763 5763 5762 5762 5761 5761 5760 5760 5759 5759 5758
5793 5791 5789 5787 5785 5783 5782 5780 5778 5776 5775 5774 5772 5771 5769 5768 5766 5765 5763 5763 5762 5761 5760 5759 5758 5757 5756 5756 5755 5754 5754 5753 5753 5752 5751 5751 5750 5749
5788 5786 5784 5782 5780 5778 5776 5774 5772 5770 5769 5768 5766 5765 5763 5762 5760 5759 5757 5755 5754 5753 5753 5752 5750 5750 5749 5748 5747 5746 5746 5745 5745 5744 5743 5742 5742 5741
5783 5781 5778 5776 5774 5772 5770 5768 5766 5764 5762 5761 5760 5758 5757 5755 5754 5752 5750 5749 5747 5746 5745 5744 5743 5742 5741 5740 5740 5739 5738 5737 5737 5736 5735 5734 5733 5732
5777 5775 5773 5771 5769 5767 5765 5763 5760 5758 5755 5754 5752 5751 5749 5748 5747 5745 5744 5742 5741 5739 5737 5736 5735 5734 5734 5733 5732 5731 5730 5729 5728 5727 5726 5725 5724 5723
5771 5769 5767 5765 5763 5760 5758 5756 5754 5751 5749 5747 5745 5744 5742 5741 5739 5738 5736 5735 5734 5732 5730 5729 5728 5726 5726 5725 5724 5723 5721 5720 5719 5718 5717 5716 5714 5713
5765 5763 5761 5759 5756 5754 5752 5749 5747 5744 5742 5740 5738 5736 5735 5733 5732 5730 5729 5727 5726 5725 5723 5722 5720 5719 5718 5718 5716 5715 5713 5712 5711 5709 5708 5707 5706 5705
5759 5757 5754 5752 5750 5747 5745 5742 5740 5737 5735 5733 5731 5729 5727 5725 5724 5722 5721 5720 5718 5717 5715 5714 5713 5711 5710 5709 5708 5707 5705 5704 5702 5701 5700 5698 5697 5696
5752 5750 5747 5745 5743 5740 5738 5736 5733 5731 5728 5726 5724 5722 5720 5718 5716 5715 5713 5712 5711 5709 5707 5706 5704 5703 5702 5701 5700 5699 5698 5696 5694 5693 5692 5690 5689 5688
5744 5742 5740 5738 5736 5734 5731 5729 5726 5724 5722 5720 5717 5715 5713 5711 5709 5708 5706 5705 5703 5702 5700 5698 5696 5695 5694 5693 5692 5691 5689 5688 5687 5685 5684 5683 5682 5680
5737 5735 5733 5731 5729 5727 5725 5722 5720 5718 5715 5713 5711 5709 5707 5705 5703 5700 5699 5697 5696 5695 5693 5691 5689 5688 5686 5685 5684 5683 5681 5680 5678 5677 5676 5675 5674 5673
5730 5728 5726 5724 5722 5720 5718 5716 5713 5711 5709 5707 5705 5703 5701 5699 5697 5694 5693 5691 5689 5688 5686 5684 5682 5681 5679 5677 5676 5675 5673 5672 5671 5669 5668 5668 5667 5665
5722 5720 5719 5717 5715 5713 5711 5709 5707 5705 5702 5700 5699 5697 5694 5692 5690 5688 5686 5684 5683 5681 5680 5678 5676 5674 5673 5672 5670 5668 5667 5665 5664 5663 5662 5661 5660 5659
5714 5713 5711 5709 5707 5705 5703 5701 5700 5698 5696 5694 5692 5690 5688 5686 5684 5682 5680 5678 5676 5675 5673 5671 5670 5668 5666 5665 5664 5662 5660 5659 5658 5656 5655 5654 5653 5652
5706 5704 5703 5701 5699 5697 5696 5694 5692 5690 5689 5687 5685 5684 5682 5679 5677 5675 5673 5672 5670 5668 5667 5665 5663 5661 5660 5658 5657 5655 5654 5652 5651 5649 5648 5647 5646 5645
5697 5696 5694 5693 5691 5689 5688 5686 5685 5683 5682 5680 5678 5676 5674 5672 5670 5668 5667 5665 5663 5661 5660 5658 5656 5655 5653 5652 5650 5649 5648 5646 5644 5642 5641 5640 5639 5638
5688 5687 5685 5684 5682 5681 5680 5678 5677 5676 5674 5672 5671 5669 5667 5665 5663 5661 5659 5657 5656 5654 5653 5651 5649 5648 5646 5645 5643 5642 5640 5639 5638 5637 5635 5633 5632 5630
Wind_Speed
15 15 15 16 16 15 15 15 15 15 15 16 17 17 18 18 19 19 20 21 21 22 22 22 22 23 23 24 24 24 24 24 24 24 24 25 25 26
16 16 17 17 17 17 16 16 16 16 16 16 17 17 18 19 20 21 22 22 22 23 23 24 24 24 24 24 24 25 25 25 25 25 26 25 25 25
17 17 17 17 17 17 17 17 16 17 17 18 18 19 20 20 20 21 21 22 22 22 22 22 23 23 24 24 24 24 24 25 25 26 26 26 26 26
17 17 17 17 18 17 18 18 18 18 18 18 18 19 20 21 21 22 22 23 23 22 23 23 23 23 24 24 24 25 25 25 26 26 27 27 27 27
17 17 18 18 18 18 18 18 19 19 18 18 19 20 20 21 21 22 23 23 23 23 23 23 23 24 24 24 25 26 26 26 26 27 27 27 27 27
17 18 18 18 18 18 19 19 19 19 19 19 20 20 21 21 21 22 22 23 23 24 24 23 24 24 24 24 25 26 27 27 27 27 27 27 28 28
17 17 17 18 18 19 19 19 19 20 20 20 20 20 20 21 21 22 22 23 24 24 24 24 24 25 25 25 26 26 26 26 27 27 27 27 28 28
17 18 18 19 19 19 19 20 20 20 20 20 20 20 20 20 21 22 22 22 23 24 24 24 25 25 26 25 26 26 26 26 26 26 27 28 28 28
18 19 19 20 20 20 20 20 21 20 20 21 21 21 21 21 21 22 23 23 23 23 24 24 25 25 25 25 25 25 26 26 26 26 26 27 27 28
20 20 20 20 21 21 21 21 21 21 22 22 22 22 22 22 22 22 23 23 23 24 24 24 25 25 25 25 25 26 26 26 26 27 27 27 27 28
20 21 21 21 21 21 21 22 22 23 23 23 23 24 24 23 23 23 23 22 23 23 23 24 24 24 25 25 25 26 26 26 26 27 27 28 28 29
21 22 22 22 22 22 22 22 22 23 24 24 23 23 23 23 23 23 23 22 22 22 23 23 23 23 23 24 25 25 26 27 27 27 28 28 28 28
22 22 23 23 23 23 23 23 23 23 23 23 24 23 24 23 23 23 23 23 22 23 23 23 23 24 24 24 24 25 25 26 26 26 26 27 27 27
23 24 24 24 24 24 24 24 24 23 23 22 23 23 23 23 23 23 23 23 23 23 24 24 24 24 24 24 24 25 25 26 26 26 26 26 26 26
24 24 24 24 24 24 24 24 24 23 22 22 23 22 22 22 23 23 23 23 24 24 25 25 25 24 24 24 24 25 25 25 26 26 25 26 26 25
25 24 24 24 24 24 24 23 23 23 22 22 22 22 21 21 22 23 23 23 24 24 24 24 24 24 24 24 24 25 25 25 25 25 25 25 25 25
24 24 24 25 24 24 24 24 24 24 23 22 22 22 21 21 22 22 22 23 23 23 23 23 24 24 24 24 24 24 25 25 25 24 24 24 24 24
24 24 24 24 24 24 24 24 24 23 22 22 21 22 22 22 21 21 21 21 21 21 22 22 22 22 22 22 22 23 23 23 23 23 23 23 23 23
25 25 25 25 25 25 25 24 24 23 23 22 22 22 22 22 22 22 22 22 22 22 22 22 22 22 21 21 21 21 21 21 21 21 21 21 21 22
26 26 26 26 26 25 25 24 24 24 23 22 22 22 22 22 22 22 22 22 22 22 22 22 22 22 22 22 22 22 22 22 21 21 21 21 21 22
27 27 26 26 26 25 25 25 25 23 22 22 23 22 22 22 23 23 22 22 22 22 22 21 21 22 22 22 22 22 22 22 22 22 22 22 23 23
27 27 27 27 26 25 25 24 24 23 22 23 23 23 23 23 24 23 23 23 22 22 21 21 21 22 22 21 21 22 22 22 23 22 22 22 22 22
27 27 27 26 25 25 24 24 23 24 24 24 24 24 24 24 24 24 23 23 22 22 22 22 22 22 22 22 22 22 22 22 22 22 22 23 23 23
Wind_Direction
302 302 302 301 298 297 295 293 290 285 280 275 272 270 269 266 265 266 266 266 265 265 266 265 263 264 263 262 263 262 262 263 263 264 265 266 265 265
298 297 297 297 296 294 292 291 288 286 282 278 276 275 273 271 269 269 268 269 266 267 269 268 267 264 264 265 263 262 262 263 264 265 265 266 267 268
297 296 296 296 295 294 292 291 288 286 285 280 277 274 273 273 272 271 269 269 271 269 270 271 269 267 265 266 265 264 265 265 265 266 268 269 270 270
298 298 298 297 295 293 291 290 289 287 285 282 279 276 274 273 272 272 271 271 272 272 271 271 270 269 267 268 268 267 266 266 267 267 268 269 270 270
297 297 297 297 295 294 293 291 288 286 284 282 281 279 276 275 273 273 273 272 272 272 272 272 271 271 269 269 269 268 267 267 267 268 269 269 270 270
298 298 297 298 298 297 295 292 290 288 285 283 284 283 279 278 276 274 274 273 272 271 271 271 271 271 270 269 270 270 269 269 269 269 269 269 269 270
300 300 299 298 296 297 298 296 293 291 289 287 287 287 284 280 278 277 275 275 273 273 272 272 272 271 270 270 271 271 271 270 270 270 269 270 270 270
302 301 301 300 298 298 297 295 293 291 289 288 289 288 286 283 282 281 279 277 275 274 273 273 272 271 270 272 272 271 272 272 272 272 270 270 270 270
300 300 300 300 300 298 296 296 295 292 289 288 288 287 286 284 283 282 281 280 277 275 273 273 272 271 271 273 273 273 273 272 272 273 272 271 271 271
298 298 299 298 299 299 297 296 296 293 291 290 288 288 287 285 285 284 283 282 281 278 275 275 274 272 271 272 273 274 275 273 274 275 274 273 273 274
298 299 299 299 300 300 298 298 297 294 292 291 290 288 288 286 286 285 284 284 284 283 279 277 276 275 274 274 275 275 276 276 276 275 275 275 275 274
297 298 299 300 299 298 297 297 298 295 292 290 290 290 289 288 288 286 286 286 285 284 281 279 277 276 276 275 275 275 276 276 277 276 276 276 275 275
298 297 298 298 298 298 299 298 298 296 294 291 289 288 288 287 288 287 285 285 284 283 281 279 278 277 276 274 274 276 276 277 277 277 277 277 277 276
296 297 298 299 299 298 299 299 298 297 295 293 291 290 288 286 285 284 283 283 282 282 282 280 279 278 277 276 274 274 277 278 277 277 277 277 276 275
294 295 295 296 298 299 299 298 297 297 295 294 293 291 288 285 284 283 283 283 283 283 282 281 280 279 279 279 277 277 279 279 279 277 277 277 276 275
293 295 295 296 298 299 299 298 297 296 294 293 292 291 290 288 287 286 285 285 285 285 283 282 280 280 280 281 280 279 279 280 279 277 277 276 274 275
291 293 294 296 296 296 297 296 295 295 293 291 290 291 289 288 290 289 287 286 286 286 286 285 284 283 282 282 282 281 280 280 279 278 277 276 276 276
290 291 293 293 294 294 295 294 294 295 292 289 288 290 290 291 290 290 290 288 286 286 286 286 285 286 285 284 284 283 282 280 280 278 277 275 274 276
289 289 290 292 293 293 293 292 292 293 291 287 287 289 290 291 290 291 291 289 287 287 287 287 287 288 289 287 284 283 283 282 282 278 275 275 275 276
287 288 288 289 291 291 292 291 290 290 288 286 287 289 291 290 291 291 289 288 286 285 285 285 285 287 287 287 284 282 281 282 282 280 276 276 278 277
287 287 287 288 289 289 288 289 289 287 286 286 288 288 290 291 291 290 288 286 285 284 284 283 282 284 285 285 283 282 282 283 283 282 277 277 278 277
286 286 286 287 287 287 287 287 287 286 285 287 289 288 288 289 290 289 287 286 284 284 284 283 282 283 285 285 284 283 282 282 283 283 282 281 280 280
285 285 286 286 285 284 284 284 284 286 286 286 287 288 289 289 289 288 286 284 283 282 283 285 285 284 284 284 284 283 282 282 283 281 280 282 284 284